Location: Fort Wayne
(41.1310°N, 85.1290°W)
Time: 10:07:46
(UTC-04:00)

Cosmos 1000 Rocket - Visible Passes

Search period start: 04 August 2015 00:00
Search period end: 14 August 2015 00:00
Orbit: 955 x 992 km, 82.9° (Epoch: 03 August)

Date Brightness Start Highest point End Pass type
(mag) Time Alt. Az. Time Alt. Az. Time Alt. Az.
04 Aug 6.8 05:07:20 10° SE 05:11:50 22° E 05:16:34 10° NE visible
05 Aug 5.9 05:30:37 10° SSE 05:36:16 40° E 05:42:05 10° NNE visible
06 Aug 4.8 05:54:42 10° S 06:00:51 72° E 06:07:07 10° NNE visible
07 Aug 7.0 04:36:54 10° ESE 04:40:48 18° E 04:44:59 10° NE visible
08 Aug 6.1 04:59:50 10° SSE 05:05:12 33° E 05:10:45 10° NNE visible
09 Aug 5.1 05:23:40 10° S 05:29:44 59° E 05:35:55 10° NNE visible
10 Aug 7.0 04:06:40 10° ESE 04:09:46 15° E 04:13:14 10° NE visible
10 Aug 4.5 05:48:11 10° S 05:54:24 79° W 06:00:44 10° N visible
11 Aug 6.3 04:29:08 10° SE 04:34:09 27° E 04:39:22 10° NNE visible
11 Aug 4.9 06:13:19 10° SSW 06:19:15 45° WNW 06:25:15 10° N visible
12 Aug 5.4 04:52:43 10° SSE 04:58:38 49° E 05:04:41 10° NNE visible
13 Aug 7.1 03:36:52 10° E 03:38:46 12° E 03:41:07 10° ENE visible
13 Aug 4.5 05:17:01 10° S 05:23:15 86° E 05:29:36 10° N visible
